Regional Weather Roundup
Issued by NWS Charleston, SC

Current Version | Previous Version | Text Only | Print | Product List | Glossary Off
Versions: 1 2 3 4 5 6 7 8 9 10 11 12 13 14 15 16 17 18 19 20 21 22 23 24 25 26 27 28 29 30 31 32 33 34 35 36 37 38 39 40 41 42 43 44 45 46 47 48 49 50

000
ASUS42 KCHS 211613
RWRCHS

Regional Weather Roundup
National Weather Service Charleston SC
1100 AM EST WED FEB 21 2018

NOTE: "fair" indicates few or no clouds below 12,000 feet with no
significant weather and/or obstructions to visibility.

Not all stations are quality controlled. Use data with caution,
especially dewpoint observations.

SCZ027-030-031-034>040-042>050-211700-
...Southeast South Carolina...

CITY           SKY/WX    TMP DP  RH WIND       PRES   REMARKS
N Charleston   PTSUNNY   75  68  78 S10       30.48S
Waterfront Prk   N/A     66  66 100 VRB3      30.33S
Mount Pleasant FAIR      75  68  78 S10       30.49S
Johns Island   CLOUDY    73  70  88 CALM      30.49R
Pinopolis        N/A     72  70  94 VRB2      30.40S
Moncks Corner  CLOUDY    68  68 100 S5        30.48S
Summerville    PTSUNNY   72  66  83 S3        30.48F
Beaufort MCAS  FAIR      77  69  76 SE9       30.47S
Beaufort Arpt  CLOUDY    77  68  73 S12       30.47S
Hilton Head Is SUNNY     75  68  78 S8        30.48R
Walterboro     CLOUDY    73  66  78 S7        30.47F
Allendale      LGT RAIN  70  70 100 VRB5      30.46S

...Southern Midlands and Pee Dee...

CITY           SKY/WX    TMP DP  RH WIND       PRES   REMARKS
Georgetown     CLOUDY    73  70  88 S8        30.50S
Kingstree      CLOUDY    73  66  78 S8        30.48S
Orangeburg     CLOUDY    74  66  76 S8        30.46S
Barnwell         N/A     72  72 100 SE6       30.46S
Aiken          CLOUDY    72  68  88 S8        30.48S
Manning        FAIR     N/A N/A N/A MISG      30.47F
Columbia       CLOUDY    74  68  81 S10       30.45S
Sumter         PTSUNNY   73  65  76 S10       30.45S
Florence       PTSUNNY   75  66  73 SW12      30.48F
Myrtle Beach   PTSUNNY   69  66  90 SE8       30.51S
N Myrtle Beach CLOUDY    70  66  87 S6        30.50S

$$

GAZ063-065-086>088-099>101-113>116-118-119-134>141-150-211700-
...Southeast Georgia...

CITY           SKY/WX    TMP DP  RH WIND       PRES   REMARKS
Savannah Arpt  PTSUNNY   79  68  69 S14       30.46S
Hunter AAF     FAIR      78  75  93 S13       30.43S
Fort Stewart   PTSUNNY   78  68  69 SE12      30.43F
Statesboro     CLOUDY    75  66  72 S8        30.45F
Sylvania       CLOUDY    73  70  90 S6        30.46F
Claxton        PTSUNNY   76  69  80 SE3       30.45S

...CSRA, Central and far Southeast Georgia...

CITY           SKY/WX    TMP DP  RH WIND       PRES   REMARKS
Thomson        CLOUDY    75  66  74 W5        30.49S
Augusta-Bush   CLOUDY    78  67  68 SW7       30.43S
Augusta-Daniel CLOUDY    76  67  73 S9        30.45S
Swainsboro     CLOUDY    73  68  83 S10       30.45F
Vidalia        CLOUDY    79  68  69 S12G20    30.44F
Eastman        CLOUDY    77  60  55 S10       30.45S
Hazlehurst     FAIR      78  64  62 S8        30.43S
Alma           PTSUNNY   79  67  66 SW12      30.43S
Waycross       PTSUNNY   79  67  66 S10       30.44S
Jesup          PTSUNNY   81  66  61 S8        30.44F
Baxley         PTSUNNY   73  70  88 SW9       30.43F
Brunswick      CLOUDY    77  66  69 SE10G16   30.46S
Saint Simons   CLOUDY    74  69  85 S7        30.46R

$$

SCZ027-028-034-036>038-045-046-048>050-GAZ119-141-211700-
...Lake and Supplemental Coastal Observations...

STATION/POSITION TIME  TEMP    WIND        PRES    WAVE   SWELL
                       AIR SEA DIR/SP/G            HT/PER HT/PER/DIR
                 (UTC) (F)     (DEG/KT/KT) (MB)    (FT/S) (FT/S/D)
Winyah Bay       1445   68     140/  2     1033.0
Lake Murray      1520   66     170/  6/  7 1030.1
ACE Basin NERRS  1445   72     180/  1     1032.0
Fort Pulaski     1542   73 60  150/  5/  8 1032.1R
Sapelo Island    1500   72     180/  6     1031.0

$$

ANZ835-935-AMZ111-154-330-350-352-354-370-450-454-472-211700-
...C-MAN and Buoy Observations...

STATION/POSITION TIME  TEMP    WIND        PRES    WAVE   SWELL
                       AIR SEA DIR/SP/G            HT/PER HT/PER/DIR
                 (UTC) (F)     (DEG/KT/KT) (MB)    (FT/S) (FT/S/D)
Buoy 41004       1550   71 68  160/  2/  4 1032.4R
Buoy 41008       1550   64 58  130/  6/  6 1031.2R   4/ 7   3/130/ 7
Folly Beach CMAN 1600   64     110/  5/  5 1032.9R
Capers Nearshore 1508   62 59  130/  4/  6 1032.0R
Fripp Nearshore  1508   63 59  100/  4/  6 1031.2R


STATION/POSITION TIME  TEMP    WIND        PRES    WAVE   SWELL
                       AIR SEA DIR/SP/G            HT/PER HT/PER/DIR
                 (UTC) (F)     (DEG/KT/KT) (MB)    (FT/S) (FT/S/D)
5E St. Marys GA  1530      64                N/A     4/ 7
Frying Pan Buoy  1550   72 70  180/  6/  6 1032.9S   4/ 6   3/140/ 6
Buoy 41025       1550   73 71  190/ 14/ 16 1033.5F   4/13   3/ 80/13
Cape Lookout NC  1600          180/  9/  9 1033.3F
Buoy 41002       1550   72 74  120/ 12/ 14 1033.7F   5/11   5/ 40/11
Buoy 41010       NOT AVBL
St Augustine FL  1600   69 63   70/  3/  4 1031.3R


$$




USA.gov is the U.S. government's official web portal to all federal, state and local government web resources and services.